Tacoma, WA
on Thursday, December 13, 2012

Thursday
Previous Day Next Day
Daily Summary
 ActualAverage (KSEA)Record (KSEA)
Temperature
Mean Temperature °F 40°F  
Max Temperature 45°F 46°F 59°F (1952)
Min Temperature 36°F 35°F 19°F (1972)
Degree Days
Heating Degree Days 24 25  
Month to date heating degree days 310  
Since 1 July heating degree days 1493  
Cooling Degree Days 0 0  
Month to date cooling degree days 0  
Year to date cooling degree days 189  
Moisture
Dew Point 37°F   
Average Humidity 92    
Maximum Humidity 100    
Minimum Humidity 65    
Precipitation
Precipitation 0.05 in 0.17 in 1.63 in (2001)
Month to date precipitation 2.37  
Year to date precipitation 34.51  
Snow
Snow 0.00 in in 0.80 in (2008)
Month to date snowfall  
Since 1 July snowfall  
Snow Depth in   
Wind
Wind Speed 3 mph   
Max Wind Speed 10 mph   
Max Gust Speed mph   
Visibility 8 miles   
Events Rain   

Key: T is trace of precipitation, MM is missing value
Source: NWS Daily Summary
Time(PST)TemperatureDew PointHumidity Pressure Visibility Wind DirectionWind SpeedGust SpeedPrecipitationEvents Conditions
12:33 AM 39.2°F 37.4°F 93% 30.02 in 1.8 miles Calm Calm - N/A   Mostly Cloudy
12:38 AM 37.4°F 37.4°F 100% 30.02 in 0.8 miles Calm Calm - N/A   Mostly Cloudy
12:43 AM 37.4°F 37.4°F 100% 30.02 in 0.8 miles Calm Calm - N/A   Overcast
12:48 AM 37.4°F 37.4°F 100% 30.02 in 1.5 miles South 2.3 mph - N/A   Overcast
12:58 AM 37.4°F 37.4°F 100% 30.04 in 1.0 miles Calm Calm - N/A   Overcast
1:03 AM 37.4°F 37.4°F 100% 30.02 in 1.2 miles SE 2.3 mph - N/A   Overcast
1:08 AM 37.4°F 37.4°F 100% 30.02 in 2.0 miles South 1.2 mph - N/A   Overcast
1:18 AM 37.4°F 37.4°F 100% 30.02 in 3.0 miles South 3.5 mph - N/A   Overcast
1:23 AM 37.4°F 37.4°F 100% 30.02 in 7.0 miles South 3.5 mph - N/A   Overcast
1:28 AM 37.4°F 37.4°F 100% 30.02 in 10.0 miles SSE 2.3 mph - N/A   Overcast
1:53 AM 37.4°F 37.4°F 100% 30.03 in 10.0 miles South 3.5 mph - N/A   Overcast
1:58 AM 37.0°F 36.9°F 99% 30.05 in 10.0 miles SSW 3.5 mph - N/A   Overcast
2:58 AM 37.6°F 37.4°F 99% 30.05 in 10.0 miles South 2.3 mph - N/A   Overcast
3:03 AM 37.4°F 37.4°F 100% 30.03 in 10.0 miles Calm Calm - N/A   Overcast
3:58 AM 37.0°F 36.9°F 99% 30.06 in 10.0 miles SSW 3.5 mph - N/A   Overcast
4:58 AM 36.7°F 36.5°F 99% 30.07 in 10.0 miles South 2.3 mph - N/A   Overcast
5:23 AM 37.4°F 37.4°F 100% 30.04 in 10.0 miles SSW 2.3 mph - N/A   Overcast
5:43 AM 37.4°F 35.6°F 93% 30.04 in 10.0 miles SSW 3.5 mph - N/A   Overcast
5:58 AM 37.4°F 35.6°F 93% 30.05 in 10.0 miles South 3.5 mph - N/A   Overcast
6:08 AM 37.4°F 35.6°F 93% 30.03 in 10.0 miles South 5.8 mph - N/A   Overcast
6:13 AM 37.4°F 35.6°F 93% 30.03 in 10.0 miles South 5.8 mph - N/A   Overcast
6:23 AM 37.4°F 35.6°F 93% 30.03 in 10.0 miles South 5.8 mph - N/A   Overcast
6:33 AM 37.4°F 35.6°F 93% 30.03 in 10.0 miles South 3.5 mph - N/A   Overcast
6:58 AM 36.3°F 35.1°F 95% 30.06 in 10.0 miles South 4.6 mph - N/A   Overcast
7:58 AM 36.5°F 35.1°F 95% 30.04 in 10.0 miles SE 3.5 mph - N/A   Overcast
8:58 AM 39.0°F 34.7°F 84% 30.04 in 10.0 miles Calm Calm - N/A   Overcast
9:58 AM 41.0°F 34.7°F 78% 30.02 in 10.0 miles SSE 4.6 mph - N/A   Overcast
10:58 AM 43.3°F 34.3°F 71% 30.01 in 10.0 miles South 8.1 mph - N/A   Overcast
11:55 AM 44.8°F 34.3°F 67% 29.98 in 10.0 miles SSW 8.1 mph - N/A   Overcast
12:55 PM 45.0°F 34.2°F 66% 29.96 in 10.0 miles SSW 10.4 mph - N/A   Overcast
1:55 PM 45.3°F 34.3°F 65% 29.92 in 10.0 miles South 9.2 mph - N/A   Overcast
2:55 PM 44.6°F 34.9°F 69% 29.91 in 10.0 miles SSW 8.1 mph - N/A   Overcast
3:58 PM 43.5°F 35.4°F 73% 29.90 in 10.0 miles South 8.1 mph - N/A   Overcast
4:58 PM 41.5°F 36.3°F 82% 29.88 in 10.0 miles South 4.6 mph - N/A   Mostly Cloudy
5:58 PM 42.8°F 35.6°F 76% 29.87 in 10.0 miles SE 3.5 mph - N/A   Overcast
6:58 PM 42.8°F 35.6°F 76% 29.87 in 10.0 miles SE 3.5 mph - N/A   Overcast
7:58 PM 42.8°F 35.6°F 76% 29.85 in 10.0 miles SE 3.5 mph - N/A   Overcast
8:58 PM 42.8°F 35.6°F 76% 29.85 in 10.0 miles SE 3.5 mph - N/A   Overcast
9:19 PM 39.2°F 39.2°F 100% 29.83 in 10.0 miles SE 1.2 mph - N/A   Overcast
9:24 PM 39.2°F 39.2°F 100% 29.83 in 10.0 miles ESE 2.3 mph - N/A   Overcast
9:34 PM 39.2°F 39.2°F 100% 29.83 in 10.0 miles ESE 3.5 mph - N/A Rain Light Rain
9:44 PM 39.2°F 39.2°F 100% 29.83 in 9.0 miles SE 2.3 mph - N/A Rain Light Rain
9:58 PM 39.2°F 39.2°F 100% 29.83 in 9.0 miles SE 2.3 mph - 0.00 in Rain Light Rain
10:28 PM 39.2°F 39.2°F 100% 29.82 in 9.0 miles South 3.5 mph - N/A Rain Light Rain
10:48 PM 39.2°F 39.2°F 100% 29.82 in 10.0 miles SE 2.3 mph - N/A Rain Light Rain
10:58 PM 39.2°F 39.0°F 99% 29.82 in 10.0 miles SE 2.3 mph - 0.03 in Rain Light Rain
11:08 PM 39.2°F 39.2°F 100% 29.82 in 10.0 miles SSE 4.6 mph - N/A Rain Light Rain
11:43 PM 39.2°F 39.2°F 100% 29.81 in 10.0 miles South 2.3 mph - N/A Rain Light Rain
11:48 PM 39.2°F 39.2°F 100% 29.81 in 9.0 miles SSW 3.5 mph - N/A Rain Light Rain
11:58 PM 39.4°F 39.0°F 99% 29.81 in 9.0 miles SSW 3.5 mph - 0.02 in Rain Light Rain
Moon Phase
Dec. 13 Dec. 20 Dec. 28 Jan. 04 Jan. 11
Sunrise:07:48 AM (PST) Moon Rise:08:00 AM (PST)12/13
Sunset:04:20 PM (PST) Moon Set:05:10 PM (PST)12/13

Copyright © 2014 The Weather Underground, Inc.